Location: DARK SKY Beskydy - Park tmavé oblohy, www.darkskybeskydy.cz
(49.4926°N, 18.5016°E)
Time: 11:13:04
(UTC+02:00)

BlueWalker 3 - Pass Details

Date: 22 June 2024
Orbit: 480 x 491 km, 53.2° (Epoch: 23 July)

Event Time Altitude Azimuth Distance (km) Brightness Sun altitude
Rises 01:47:34 0° 292° (WNW) 2,539 5.6 -15.9°
Reaches altitude 10° 01:49:44 10° 294° (WNW) 1,657 4.7 -15.8°
Maximum altitude 01:53:28 78° 21° (NNE) 495 1.9 -15.6°
Drops below altitude 10° 01:57:12 10° 109° (ESE) 1,653 4.5 -15.5°
Sets 01:59:22 0° 110° (ESE) 2,531 5.5 -15.4°
